Погода в Тихвине

Хотите узнать прогноз погоды в Тихвине? Тогда Вам сюда: Погода в Тихвине

Поиск расширенной информации на нашем сайте:

Полезная информация:

Новости сайта



02.01.2020
Опубликован Долгосрочный прогноз погоды по городам России и ближнего зарубежья на январь 2020 года.
Карты: Прогноз на январь и февраль 2020 года, Сравнение прогнозируемой аномалии приземной температуры воздуха на январь 2020 года по разным моделям.




Погода в Тихвине - сегодня

Время (UTC), дата Ветер
(°,м/с) 
Видим.   Явления Облачность Т
(°С)
Тd
(°С)
f(%) Тe
(°С)
Pmin
(гПа)
dP
(гПа)
Po
(мм)
O2
(г/м3)
Тmin Tmax R s Состояние
почвы
00 16.01.22 290 (З) 10 км  {снег, морось} [диам. гололёда 1 мм]  10/10 600 м 
[Sc]
-4.1 -6.3 85 -4  1007.4  1.4  750  307           
03 16.01.22 250 (З) 10 км    10/10 1000 м 
[Sc]
-3.9 -5.2 91 -3  1006.1  -1.3  749  307  -4.8    0.6     
06 16.01.22 220 (ЮЗ) 10 км    9/0 средняя 
[Ac trans]
-7.2 -8.5 90 -7  1006.8  0.6  749  311  -7.4    0.3  68  равномерный
сухой снег
100% 
09 16.01.22 210 (ЮЗ) 10 км    9/9 600 м средняя 
[Ac trans]
-6.1 -7.5 90 -8  1004.5  -2.3  747  309           
12 16.01.22 210 (ЮЗ) 10 км    10/10 600 м 
[Sc]
-3.8 -5.2 90 -6  1001.2  -3.2  745  305           
15 16.01.22 210 (ЮЗ) 10 км    10/10 600 м 
[Sc]
-3.3 -5.1 87 -5  997.5  -3.6  742  303           
18 16.01.22 210 (ЮЗ) 4000 м  слаб. снег  10/10 300 м 
[Frnb|Ns]
-2.6 -3.7 92 -5  992.9  -4.6  739  301    -2.5  0.3     
21 16.01.22 200 (Ю) 0500 м  сильн. снег  10/10 300 м 
[Frnb|Ns]
-1.4 -2.1 95 -3  987  -5.8  734  298           
00 17.01.22 220 (ЮЗ) 2000 м  снег  10/10 300 м 
[Frnb|Ns]
-0.1 -0.7 96 -2  983.1  -3.8  732  295           
03 17.01.22 230 (ЮЗ) 10 км  в посл. час снег  10/10 300 м 
[St]
-0.1 -0.5 97 -1  982.1  -1  731  295  -3.3    10     
06 17.01.22 220 (ЮЗ) 4000 м  слаб. снег  10/10 300 м 
[Frnb|Ns]
-1.4 -1.8 97 -1  980.2  -1.9  729  296  -2.5    73  равномерный
сухой снег
100% 
09 17.01.22 210 (ЮЗ) 10 км  {снег}  10/10 300 м 
[St]
-0.7 -1.3 96 980.8  0.6  730  295           
12 17.01.22 тихо ()   10 км  {снег}  9/9 600 м 
[Sc]
-0.9 -1.7 94 -1  981.2  0.4  730  295           
15 17.01.22 320 (СЗ) 10 км    9/9 600 м 
[Sc]
-2 -3.6 89 -5  984.1  2.8  732  298      0.3     
18 17.01.22 320 (СЗ) 3{10}  10 км    10/10 600 м 
[Sc]
-4.6 -6.8 85 -7  988.7  4.5  736  302    -0.4  0.3     
21 17.01.22 320 (СЗ) 10 км    9/9 600 м 
[Sc]
-5.7 -8.4 81 -8  992.8  739  305           
00 18.01.22 310 (СЗ) 10 км    9/9 600 м 
[Sc]
-6.9 -9.5 82 -10  997.6  4.8  742  308           
03 18.01.22 320 (СЗ) 10 км    1/1 600 м 
[Sc]
-7.6 -10.3 81 -10  1001.8  4.1  745  310  -7.8         
06 18.01.22 320 (СЗ) 10 км    3/0 средняя 
[Ac trans]
-7.9 -10.9 79 -11  1005.7  3.9  748  312  -8.2      71  равномерный
сухой снег
100% 
09 18.01.22 320 (СЗ) 10 км    ясно 
-7.7 -11.4 75 -10  1010  4.2  751  313           
12 18.01.22 300 (СЗ) 10 км    6/0 верхняя 
[Ci fib]
-7.3 -11 75 -9  1012.5  2.5  753  313           
15 18.01.22 280 (З) 10 км    4/0 верхняя 
[Ci fib]
-10.6 -11.4 94 -10  1015.2  2.6  755  318           
18 18.01.22 250 (З) 10 км    8/0 средняя 
[Ac trans]
-9.2 -10.4 91 -11  1015.1  755  316    -6.9       
21 18.01.22 210 (ЮЗ) 10 км    8/0 средняя 
[Ac trans]
-10.1 -11.3 91 -12  1015.7  0.5  756  317           
00 19.01.22 190 (Ю) 10 км    10/0 средняя 
[Ac und]
-9.7 -10.9 91 -11  1013.5  -2.1  754  316           
Время (UTC), дата Ветер
(°,м/с) 
Видим.   Явления Облачность Т
(°С)
Тd
(°С)
f(%) Тe
(°С)
Pmin
(гПа)
dP
(гПа)
Po
(мм)
O2
(г/м3)
Тmin Tmax R s Состояние
почвы

Для получения пояснительной информации подведите курсор к названию столбца.

ПОГОДА в Тихвине - архив

Всё, что Вы хотите узнать о погоде в Тихвине - удобно и подробно!

Выберите нужную дату (начиная с 1 января 2019* года) и нажмите кнопку "Найти".
Будут отображены архивные сводки погоды по пункту Тихвин, начиная с указанной даты.


Отображать данные в формате CSV (для использования в таблицах Excel)


Внимание! Наш архив погоды предназначен исключительно для личного некоммерческого использования в познавательных целях. Если Вам необходимы официальные справки о состоянии погоды (для производственных, юридических, коммерческих и т.п. целей), обращайтесь в органы Росгидромета.

*Примечание: данная дата относится к архиву по метеостанциям СССР (Россия, СНГ, Балтия).
Архив по метеостанциям Зарубежной Европы и Азии (кроме Китая) хранится 10 дней, по другим регионам земного шара (Китай, Африка, Америка, Австралия, Океания) - 1 день.

Тихвин - район местоположения метеостанции


Название, широта, долгота, высота метеостанции:
Тихвин 59.6°ш. 33.6°д. 61 м над ур. моря [Российская Федерация]

Дополнительная информация

В oтличие oт бoльшинства пoгoдных сайтoв мы публикуем пoдрoбную метеoинфoрмацию в детальнoм прoфессиoнальнoм фoрмате.

Характеристики температуры и влажнoсти вoздуха измеряются на высoте 2 м в тени вдали oт зданий и деревьев.
Скoрoсть ветра измеряется на высoте 10 м (на урoвне рoста челoвека скoрoсть ветра ниже в 1.5-2 раза). Если метеoстанция нахoдится в гoрoде или в лесу, тo скoрoсть ветра занижена на 2-4 м/с пo сравнению с oткрытым местoм. Скoрoсть ветра над акватoриями крупных рек и oзёр, а также на вершинах хoлмoв на 2-5 м/с выше, чем в oбычных услoвиях.
Атмoсфернoе давление в разных тoчках местнoсти мoжет значительнo oтличаться oт давления на метеoстанции, в зависимoсти oт услoвий рельефа (при пoдъёме на 10 м давление пoнижается примернo на 1 мм рт.ст.).